This demonstration page uses our WeatherBlox Daily Observations layout. Learn more.

38.89511, -77.03637

Hourly Observations for April 4, 2015

Temp ( °F °C ) Dew Point ( °F °C ) Humidity (%) Winds ( mph kmh ) Pressure ( in mb ) Visibility ( mi km ) Precip ( " mm )
12:52 am 00:52 Mostly Cloudy 68 20 54 12 60 60 S 21 33 29.59 1002 10 16.09344 0.001 0.001
1:52 am 01:52 Mostly Cloudy with Light Rain 66 19 54 12 64 64 WSW 14 22 29.65 1004 10 16.09344 0.001 0.001
2:20 am 02:20 Cloudy 66 19 54 12 64 64 SW 12 19 29.65 1004 10 16.09344 0 0
2:52 am 02:52 Cloudy 66 19 54 12 64 64 SW 9 15 29.62 1003 10 16.09344 0.001 0.001
3:11 am 03:11 Cloudy with Light Rain 66 19 54 12 64 64 W 14 22 29.65 1004 5 8.04672 0.001 0.001
3:52 am 03:52 Cloudy with Haze 63 17 52 11 68 68 W 15 24 29.68 1005 5 8.04672 0.05 1.27
4:52 am 04:52 Cloudy with Light Rain 57 14 48 9 72 72 NW 21 33 29.74 1007 10 16.09344 0.001 0.001
5:52 am 05:52 Mostly Cloudy 55 13 43 6 63 63 NW 21 33 29.8 1009 10 16.09344 0.001 0.001
6:35 am 06:35 Mostly Cloudy 55 13 39 4 55 55 WNW 18 30 29.85 1011 10 16.09344 0 0
6:52 am 06:52 Mostly Cloudy 55 13 39 4 55 55 WNW 9 15 29.85 1011 10 16.09344 0 0
7:52 am 07:52 Mostly Cloudy 55 13 37 3 51 51 NW 8 13 29.91 1013 10 16.09344 0 0
8:52 am 08:52 Partly Cloudy 57 14 39 4 51 51 WNW 13 20 29.94 1014 10 16.09344 0 0
9:52 am 09:52 Mostly Cloudy 55 13 37 3 51 51 NNW 28 44 29.97 1015 10 16.09344 0 0
10:52 am 10:52 Mostly Cloudy 55 13 36 2 47 47 NW 17 28 30.03 1017 10 16.09344 0 0
11:52 am 11:52 Mostly Cloudy 57 14 30 -1 36 36 WNW 26 43 30.06 1018 10 16.09344 0 0
12:37 pm 12:37 Partly Cloudy 57 14 28 -2 33 33 NW 23 37 30.06 1018 10 16.09344 0 0
12:52 pm 12:52 Mostly Sunny 57 14 28 -2 33 33 WNW 22 35 30.06 1018 10 16.09344 0 0
1:52 pm 13:52 Mostly Sunny 57 14 28 -2 33 33 WNW 20 31 30.09 1019 10 16.09344 0 0
2:52 pm 14:52 Partly Cloudy 59 15 21 -6 23 23 NW 20 31 30.09 1019 10 16.09344 0 0
3:52 pm 15:52 Mostly Sunny 59 15 21 -6 23 23 NNW 14 22 30.09 1019 10 16.09344 0 0
4:52 pm 16:52 Mostly Sunny 61 16 21 -6 22 22 NW 12 19 30.12 1020 10 16.09344 0 0
5:52 pm 17:52 Mostly Sunny 59 15 19 -7 21 21 NW 13 20 30.12 1020 10 16.09344 0 0
6:52 pm 18:52 Mostly Sunny 57 14 18 -8 21 21 WNW 16 26 30.15 1021 10 16.09344 0 0
7:52 pm 19:52 Clear 55 13 18 -8 23 23 NNW 7 11 30.15 1021 10 16.09344 0 0
8:52 pm 20:52 Clear 55 13 16 -9 21 21 NW 9 15 30.21 1023 10 16.09344 0 0
9:52 pm 21:52 Clear 54 12 18 -8 24 24 NW 9 15 30.24 1024 10 16.09344 0 0
10:52 pm 22:52 Clear 52 11 19 -7 28 28 NNW 5 7 30.24 1024 10 16.09344 0 0
11:52 pm 23:52 Clear 52 11 18 -8 26 26 WNW 3 6 30.24 1024 10 16.09344 0 0

Powered by AerisWeather